Temperature
19 19 19 19 19 19 19 20 20 21 20 20 20 19 18 17 17 16 16 16 15 15 15 15 15 14 14 14 14 13 13 13 13 13 13 13 12 12 12 12 12 12 12 12
19 18 18 18 18 19 19 19 19 19 19 20 19 18 18 17 16 16 15 15 15 15 14 14 14 14 14 14 13 13 13 13 13 12 12 12 12 12 12 12 12 11 11 11
19 18 18 18 19 18 18 18 19 19 19 19 18 18 17 16 16 16 15 15 15 15 14 14 14 14 14 14 13 13 13 13 12 12 12 12 11 11 11 11 11 11 11 11
18 18 18 19 18 18 18 18 18 18 18 17 17 16 16 16 15 15 15 14 14 14 14 14 14 14 13 13 13 12 12 12 12 12 11 11 11 11 11 11 11 11 10 10
17 18 18 18 17 17 17 18 18 17 17 16 16 16 16 15 15 14 14 14 14 14 14 13 13 13 13 12 12 12 12 12 11 11 11 11 11 11 11 11 10 10 10 10
16 17 17 18 17 16 17 17 17 17 16 16 16 17 17 15 14 14 14 13 13 13 13 13 13 13 12 12 12 12 12 11 11 11 11 11 11 10 10 10 10 10 10 9
16 17 18 17 16 16 17 17 16 16 15 15 16 16 15 14 13 13 13 13 13 13 13 13 12 12 12 12 12 12 11 11 11 10 10 10 10 10 10 10 9 9 9 9
16 16 16 16 15 16 17 16 15 15 14 14 14 13 13 13 13 12 12 12 12 13 12 12 12 12 12 11 11 11 11 11 10 10 10 10 10 9 9 9 9 9 9 8
16 16 15 14 15 14 14 14 14 14 13 13 13 13 13 12 12 12 12 12 12 12 11 11 11 12 11 11 11 11 10 10 10 10 9 9 9 9 9 9 9 8 8 8
15 15 14 13 13 13 13 13 13 13 12 12 12 12 12 12 12 12 12 11 11 11 11 11 11 11 11 11 10 10 10 10 10 9 9 9 9 9 9 8 8 8 8 8
15 15 14 13 13 12 12 12 12 12 12 12 11 12 11 11 11 11 11 11 11 11 11 10 10 10 10 10 10 10 9 9 9 9 9 8 8 8 8 8 8 8 8 8
14 14 14 13 12 12 12 11 12 11 11 11 11 11 11 11 11 11 11 10 10 10 10 10 10 10 10 9 9 9 9 9 8 8 8 8 8 8 8 8 8 8 8 7
12 12 12 12 11 11 11 11 11 11 11 10 10 10 10 10 10 10 10 10 10 10 10 9 9 9 9 9 9 9 9 8 8 8 8 8 7 7 7 7 7 7 7 7
10 10 11 10 10 10 10 10 10 10 10 10 10 10 10 10 10 10 10 10 10 9 9 9 9 9 9 8 8 8 8 8 8 8 7 7 7 7 7 7 7 7 7 7
9 9 10 9 9 10 9 9 10 10 10 9 9 9 9 9 9 9 9 9 9 9 9 9 8 8 8 8 8 7 7 7 7 7 7 7 6 6 6 6 6 6 6 6
8 9 9 9 9 9 9 9 9 9 9 9 9 9 9 9 9 9 9 9 9 8 8 8 8 8 8 8 7 7 7 7 7 7 6 6 6 6 6 6 6 5 6 6
8 8 8 8 8 8 8 8 8 8 8 8 9 9 9 9 9 8 8 8 8 8 8 8 8 7 7 7 7 7 6 6 6 6 6 6 6 6 5 5 5 5 5 5
7 7 7 7 7 8 8 8 8 8 8 8 8 8 8 8 8 8 8 8 7 7 7 7 7 7 7 6 6 6 6 6 6 6 6 5 5 5 5 5 5 5 5 5
7 7 7 7 7 7 7 7 7 7 7 7 7 7 7 7 7 7 7 7 7 7 7 7 7 6 6 6 6 6 6 5 5 5 5 5 5 5 5 4 4 4 4 4
6 7 7 7 7 7 7 7 7 7 7 7 7 7 7 7 7 7 7 7 7 7 7 6 6 6 6 6 5 5 5 5 5 5 5 5 4 4 4 4 4 4 4 4
6 6 6 6 6 6 6 6 6 6 6 6 6 6 6 6 6 6 6 6 6 6 6 6 6 5 5 5 5 5 5 5 4 4 4 4 4 4 4 4 4 3 3 4
5 5 5 5 6 6 6 6 6 6 6 6 6 6 6 6 6 6 6 6 6 6 5 5 5 5 5 5 5 5 4 4 4 4 4 4 4 4 3 3 3 3 3 3
5 5 5 5 5 5 5 5 5 5 5 5 5 5 5 5 5 5 5 5 5 5 5 5 5 5 5 4 4 4 4 4 4 4 3 3 3 3 3 3 3 3 3 3
5 5 5 5 5 5 5 5 5 5 5 5 4 5 4 4 4 4 4 4 5 5 5 5 5 4 4 4 4 4 3 3 3 3 3 3 3 3 3 3 3 3 2 2
4 4 4 4 4 4 4 4 4 4 4 4 4 4 4 4 4 4 4 4 4 4 4 4 4 4 3 3 3 3 3 3 3 3 3 3 3 2 2 2 2 2 2 2
4 4 4 4 4 4 4 3 3 3 3 3 3 3 3 3 3 3 3 3 3 3 3 3 3 3 3 3 3 3 2 2 2 2 2 2 2 2 2 2 2 2 1 1
3 3 3 3 3 3 3 3 3 3 3 3 3 3 3 3 3 3 3 3 3 3 3 3 2 2 2 2 2 2 2 2 2 2 2 2 2 2 2 2 1 1 1 1
Wind_Speed
7 6 6 8 9 9 12 12 12 11 11 9 7 5 4 3 3 3 3 4 5 6 6 6 7 7 7 6 6 6 6 6 5 5 5 4 4 4 3 3 3 3 4 4
7 5 6 9 10 11 12 11 12 11 11 6 5 4 4 4 3 3 3 4 4 5 6 6 6 7 7 6 6 6 6 5 4 4 4 5 5 4 4 3 3 3 3 3
7 5 7 9 8 9 8 8 8 9 7 4 4 4 4 4 4 4 3 3 4 5 5 5 5 6 6 6 6 6 6 5 5 4 4 5 5 5 4 4 4 4 4 4
5 5 8 1 1 3 6 6 6 6 5 4 4 4 4 4 3 3 3 4 4 4 4 4 4 5 5 5 5 6 6 6 5 5 5 5 5 5 5 5 5 4 4 4
4 6 7 3 1 3 6 6 3 4 4 4 3 3 2 1 3 4 4 3 3 4 4 4 4 4 5 5 5 5 6 6 6 6 5 5 5 5 5 5 5 4 4 4
5 6 6 1 1 2 4 5 1 2 2 3 3 5 3 3 4 4 3 2 2 2 3 3 3 4 5 5 5 6 6 6 6 6 6 6 5 5 4 4 4 4 4 4
8 7 5 1 1 2 5 2 1 3 2 2 4 4 4 4 4 3 3 3 2 2 2 3 3 4 5 5 5 5 5 5 5 6 6 6 5 4 4 4 4 4 4 4
6 7 5 2 2 2 3 3 2 2 2 3 3 4 4 4 3 3 3 2 2 2 2 2 3 4 5 5 4 4 4 5 5 5 5 5 5 4 4 4 4 4 4 4
5 3 3 0 2 4 3 3 3 3 3 4 4 4 4 4 3 3 3 3 2 2 3 3 3 4 5 4 4 4 4 5 5 5 5 5 5 4 4 4 4 4 4 3
6 5 5 5 4 4 4 5 4 4 4 4 5 5 5 5 4 3 3 3 3 3 4 3 3 4 4 3 4 4 5 5 5 5 5 5 4 4 4 4 4 4 4 4
8 7 5 5 5 6 6 5 5 5 5 5 5 6 6 5 4 4 4 4 4 4 5 4 4 4 3 4 4 5 5 5 5 5 5 4 4 3 4 4 4 4 4 4
7 6 7 8 7 6 6 6 6 5 6 5 5 6 6 5 4 4 4 4 4 5 5 5 4 4 4 4 5 5 5 5 4 4 4 4 3 2 2 3 3 4 4 4
8 8 8 8 6 6 6 7 7 6 6 5 5 5 5 5 5 4 4 4 5 5 5 5 4 4 4 4 5 5 5 5 4 4 4 5 4 4 3 2 3 5 5 5
6 6 7 6 6 6 6 6 6 6 5 5 5 5 5 5 5 5 5 5 4 4 4 4 4 4 3 4 4 5 5 4 5 4 5 5 5 5 4 4 3 3 3 5
5 5 6 6 5 5 5 5 5 6 5 5 5 5 5 6 6 6 5 4 4 4 4 4 4 3 3 3 4 4 4 4 4 4 4 5 5 5 4 5 4 3 3 3
5 4 4 4 5 5 6 6 6 7 6 7 6 6 6 6 6 6 5 4 4 5 4 4 4 3 3 3 4 4 4 4 4 4 4 5 5 5 5 5 5 4 4 3
4 4 5 6 6 6 7 7 7 7 7 7 7 7 6 6 6 5 5 4 5 5 4 4 4 3 3 4 4 4 4 4 5 5 4 5 5 5 5 5 5 4 4 4
4 5 6 6 7 7 8 7 7 7 7 7 7 7 6 6 6 6 5 5 4 5 5 4 4 4 4 4 4 4 4 4 4 4 4 4 4 4 5 5 5 5 4 4
5 5 6 7 7 7 7 7 8 8 7 6 7 7 7 7 7 6 5 5 6 6 5 4 3 4 4 4 4 4 4 4 4 4 4 4 4 4 4 5 5 5 5 5
6 6 6 6 6 6 6 7 7 7 7 6 7 7 7 7 6 6 6 6 6 6 5 4 4 4 4 4 4 4 4 4 4 4 4 4 5 5 5 5 5 5 5 5
6 7 7 6 6 7 6 7 6 7 7 6 6 7 7 7 6 6 6 6 5 4 4 4 4 4 4 3 4 4 4 4 4 5 5 5 5 5 5 5 5 5 5 4
6 6 7 7 7 7 7 6 7 7 6 6 6 6 6 6 6 5 6 5 4 3 3 4 4 4 4 4 4 4 4 4 5 5 5 5 5 5 5 5 5 5 5 4
6 6 7 8 8 8 7 6 6 6 6 6 6 6 6 5 5 5 5 4 3 4 4 4 4 5 6 4 4 4 4 5 5 5 5 5 5 5 5 5 5 4 4 4
7 7 7 7 7 7 7 6 6 5 5 5 5 5 5 4 4 4 4 3 3 4 4 3 4 5 5 4 4 4 4 5 5 5 5 4 4 5 5 4 4 4 4 5
7 7 7 6 6 5 6 5 5 4 5 4 5 5 5 4 4 4 3 3 3 3 3 3 4 4 4 3 3 3 4 4 4 4 4 4 4 5 4 4 4 4 4 5
6 6 6 6 5 5 4 4 4 4 4 5 5 5 4 4 3 3 3 3 3 3 3 3 3 4 3 3 3 4 4 4 4 4 5 4 5 5 4 5 6 5 5 5
6 5 5 5 4 4 4 4 4 4 5 5 5 5 4 4 3 3 3 3 2 2 2 3 3 3 3 3 3 4 4 4 4 4 4 5 5 5 5 6 5 5 5 5
Wind_Direction
265 274 264 256 245 233 240 252 260 266 266 271 278 275 266 261 257 243 235 217 204 200 200 198 197 198 199 201 201 201 200 203 207 209 207 212 215 220 219 219 225 225 230 230
256 250 258 259 255 248 248 253 257 266 269 282 290 273 264 262 257 251 245 234 216 209 206 206 203 202 202 203 202 201 202 204 200 205 204 210 215 215 216 217 225 225 226 225
259 253 262 254 249 237 234 238 241 257 275 289 286 286 277 267 261 262 257 247 228 216 211 213 212 207 204 202 198 199 200 200 199 204 209 213 213 212 214 217 221 225 226 223
263 254 246 244 79 232 237 239 237 263 286 280 280 279 275 268 271 280 275 263 244 228 217 212 205 201 195 193 193 197 202 203 203 207 212 214 214 216 220 220 217 219 222 223
244 253 261 246 246 245 243 247 233 252 278 293 294 276 270 311 308 301 290 279 260 236 222 208 198 191 186 189 195 201 208 210 209 209 211 213 215 219 221 222 220 218 221 222
233 249 255 280 29 265 240 239 210 263 288 295 276 269 293 329 319 313 305 293 274 238 214 206 201 193 195 200 204 210 212 213 211 209 209 211 214 216 217 216 221 221 223 227
235 247 261 16 41 213 232 299 331 277 282 281 274 297 313 311 307 307 303 298 275 233 215 215 209 203 209 211 217 218 211 209 209 208 207 205 206 208 211 215 216 221 225 228
226 237 248 99 148 236 307 349 312 292 291 290 301 315 315 307 305 305 309 298 264 230 230 223 214 214 219 222 221 215 206 205 205 203 200 199 199 204 207 209 211 215 223 226
233 252 3 265 290 321 334 317 314 300 299 299 298 300 302 300 301 305 295 281 260 238 239 236 227 223 224 223 215 208 206 206 204 201 201 201 198 199 205 208 212 216 221 226
254 265 283 278 289 303 308 306 301 294 294 294 287 288 294 292 289 289 284 274 254 243 243 244 240 238 236 222 212 211 210 210 208 204 203 204 205 206 208 210 216 220 223 228
257 274 287 268 285 295 297 297 295 296 295 294 286 283 285 283 282 284 279 268 249 243 245 246 244 243 232 221 217 221 221 215 210 208 207 210 215 215 219 224 223 227 231 232
260 277 278 284 289 293 292 290 291 293 294 294 286 281 284 282 283 282 275 264 253 247 244 246 245 241 228 219 221 226 226 219 213 207 206 211 212 216 192 218 216 223 237 241
275 284 283 284 285 287 288 289 286 282 280 284 282 277 276 277 280 281 275 264 255 247 240 238 238 242 235 225 224 226 226 220 213 213 207 210 214 214 220 212 204 212 218 223
280 278 276 280 284 291 292 290 288 284 281 280 282 281 279 278 280 278 273 269 260 250 241 231 230 237 235 230 230 230 227 222 217 214 214 216 221 221 220 222 232 237 212 206
281 284 281 285 290 295 297 295 292 289 289 288 285 282 279 277 278 279 275 268 256 244 237 234 233 235 232 226 232 232 229 225 221 218 215 216 219 223 224 226 231 235 235 211
289 291 294 290 295 300 297 292 289 288 288 287 286 284 282 280 279 277 273 257 244 238 239 238 241 238 230 227 232 236 232 219 224 224 219 216 216 219 222 225 228 230 231 227
292 292 295 294 293 294 293 288 286 285 284 285 286 287 281 275 273 274 271 261 253 251 248 243 244 241 234 229 231 235 233 219 212 224 226 224 220 219 221 225 228 232 235 228
290 286 286 285 287 289 292 293 291 287 282 284 290 289 280 272 269 270 268 263 261 261 257 249 242 243 238 233 233 234 228 224 223 227 229 229 229 229 226 226 228 234 238 222
307 299 296 295 294 290 290 290 287 285 284 283 283 281 277 272 269 265 259 251 251 254 254 244 228 239 237 228 230 230 227 226 226 226 230 224 227 231 230 228 230 232 232 229
320 315 309 306 304 298 292 291 290 287 286 282 279 281 279 275 269 264 259 254 250 252 246 235 235 239 236 227 229 233 229 227 226 226 226 228 229 232 233 233 236 237 235 234
323 320 318 314 309 305 301 297 292 290 291 283 277 277 279 280 276 270 262 260 259 253 240 230 233 234 235 237 235 236 230 228 229 230 227 227 229 233 236 237 238 238 236 237
320 316 315 314 309 306 306 302 297 295 296 291 285 282 281 280 277 271 260 261 261 243 240 236 236 232 234 244 241 236 232 231 233 232 231 230 229 233 234 236 239 239 235 234
314 312 312 311 308 306 306 304 302 299 296 294 291 288 285 282 278 272 271 272 264 248 248 243 235 228 237 240 238 236 235 232 231 231 232 234 234 234 234 236 236 234 234 235
314 313 312 310 308 304 304 308 309 305 301 298 296 297 294 289 281 273 276 277 264 250 251 240 228 229 232 235 231 232 236 235 232 231 233 235 236 238 239 239 237 234 235 236
311 310 309 306 303 301 304 310 312 312 311 309 308 306 301 293 288 290 288 277 263 250 250 234 230 233 235 236 231 228 231 238 240 238 235 235 236 239 243 245 242 241 239 237
307 306 305 302 298 298 300 301 301 303 305 307 310 312 312 309 303 298 291 277 266 264 263 255 245 240 241 238 237 240 242 242 243 241 240 239 239 242 245 245 242 240 241 238
302 301 300 302 303 300 296 293 294 298 300 299 302 306 307 306 303 299 290 284 279 272 270 265 258 253 249 245 245 247 247 245 242 241 243 243 242 242 244 245 244 242 240 236
Height
1495 1496 1497 1496 1496 1497 1497 1493 1495 1489 1490 1490 1491 1493 1495 1496 1497 1497 1497 1498 1499 1500 1502 1503 1504 1506 1507 1509 1510 1511 1513 1514 1515 1515 1516 1517 1518 1518 1519 1519 1519 1520 1520 1520
1496 1497 1497 1497 1494 1493 1494 1493 1492 1492 1491 1490 1492 1493 1494 1494 1495 1495 1495 1496 1497 1498 1499 1500 1501 1502 1504 1505 1507 1508 1509 1510 1511 1512 1513 1514 1514 1515 1515 1516 1516 1517 1517 1517
1494 1495 1495 1492 1488 1489 1490 1490 1491 1491 1490 1491 1491 1491 1492 1493 1493 1493 1494 1494 1495 1495 1496 1497 1498 1499 1500 1502 1503 1504 1506 1507 1508 1509 1510 1510 1511 1512 1512 1513 1513 1513 1513 1513
1494 1495 1498 1487 1487 1487 1488 1488 1489 1489 1490 1490 1491 1491 1491 1491 1491 1491 1492 1492 1492 1493 1494 1495 1495 1496 1497 1498 1500 1501 1502 1503 1504 1505 1506 1507 1508 1508 1509 1509 1509 1509 1509 1510
1496 1494 1488 1486 1487 1488 1488 1486 1487 1488 1489 1490 1490 1489 1489 1490 1490 1490 1490 1490 1490 1491 1492 1492 1493 1493 1494 1495 1496 1497 1498 1499 1500 1502 1502 1503 1504 1504 1505 1505 1505 1506 1506 1506
1496 1496 1491 1486 1486 1487 1488 1486 1487 1487 1488 1488 1488 1487 1487 1488 1488 1488 1488 1488 1488 1488 1489 1490 1490 1491 1492 1492 1493 1494 1495 1495 1497 1498 1498 1499 1500 1501 1501 1502 1502 1502 1502 1503
1493 1492 1484 1485 1488 1488 1490 1486 1487 1487 1487 1488 1487 1487 1488 1487 1486 1486 1486 1486 1486 1486 1486 1487 1487 1488 1489 1489 1490 1491 1491 1492 1493 1494 1494 1495 1496 1497 1497 1498 1498 1499 1499 1499
1491 1492 1489 1487 1488 1488 1486 1486 1486 1487 1487 1487 1487 1486 1486 1485 1485 1484 1484 1483 1483 1483 1484 1484 1484 1485 1485 1486 1487 1488 1488 1489 1490 1490 1491 1492 1492 1493 1494 1494 1494 1495 1495 1495
1487 1487 1487 1487 1487 1488 1487 1487 1487 1487 1486 1486 1485 1484 1484 1483 1482 1482 1482 1481 1481 1481 1481 1481 1481 1482 1482 1483 1483 1484 1485 1485 1486 1487 1487 1488 1489 1489 1490 1490 1491 1491 1491 1492
1487 1484 1486 1487 1487 1487 1487 1486 1486 1485 1485 1484 1483 1482 1482 1481 1480 1480 1479 1479 1479 1478 1478 1478 1478 1478 1479 1479 1479 1480 1481 1482 1482 1483 1484 1484 1485 1485 1486 1486 1487 1487 1488 1488
1484 1484 1485 1484 1485 1485 1485 1484 1484 1483 1482 1482 1481 1480 1479 1479 1478 1477 1476 1476 1476 1476 1475 1475 1475 1475 1475 1475 1476 1477 1477 1478 1478 1479 1480 1480 1481 1481 1482 1482 1483 1483 1484 1484
1482 1483 1484 1483 1483 1483 1482 1482 1481 1480 1479 1479 1478 1477 1476 1476 1475 1474 1473 1473 1472 1472 1472 1472 1472 1471 1471 1472 1472 1473 1473 1474 1474 1475 1475 1476 1477 1477 1478 1479 1479 1479 1480 1480
1482 1482 1482 1481 1481 1480 1480 1479 1478 1478 1477 1476 1475 1474 1473 1472 1472 1471 1470 1470 1469 1469 1468 1468 1468 1468 1468 1468 1468 1469 1469 1470 1470 1471 1471 1472 1473 1473 1473 1474 1475 1475 1475 1476
1480 1480 1479 1478 1478 1478 1477 1476 1475 1475 1474 1473 1472 1471 1470 1469 1468 1468 1467 1466 1466 1465 1465 1465 1464 1464 1464 1465 1465 1465 1465 1465 1466 1467 1467 1468 1469 1469 1469 1470 1470 1470 1471 1471
1478 1477 1477 1475 1475 1475 1474 1473 1472 1471 1470 1469 1468 1468 1467 1466 1465 1464 1464 1463 1462 1462 1462 1462 1461 1461 1461 1461 1462 1462 1462 1462 1462 1463 1463 1464 1464 1465 1465 1466 1466 1466 1466 1466
1475 1474 1473 1473 1472 1471 1471 1470 1469 1468 1467 1466 1465 1464 1463 1462 1462 1461 1460 1459 1459 1458 1458 1458 1458 1458 1458 1458 1458 1458 1458 1458 1458 1458 1459 1460 1460 1461 1461 1462 1462 1462 1462 1462
1472 1471 1470 1470 1469 1468 1467 1467 1466 1465 1464 1462 1462 1461 1460 1459 1458 1457 1457 1456 1455 1455 1455 1455 1455 1455 1455 1455 1455 1455 1455 1455 1455 1455 1455 1456 1456 1456 1457 1457 1457 1458 1458 1458
1470 1469 1469 1468 1466 1465 1464 1463 1462 1461 1460 1459 1458 1457 1456 1455 1454 1453 1453 1452 1452 1451 1452 1452 1451 1451 1451 1451 1451 1451 1451 1451 1451 1452 1452 1452 1452 1452 1452 1452 1453 1453 1453 1453
1467 1466 1465 1464 1463 1462 1461 1459 1459 1458 1457 1456 1454 1453 1452 1452 1451 1450 1450 1449 1448 1448 1448 1448 1448 1448 1447 1448 1448 1448 1447 1447 1447 1448 1448 1448 1448 1448 1448 1448 1448 1448 1449 1449
1464 1463 1462 1461 1459 1458 1457 1456 1455 1454 1453 1452 1451 1450 1449 1448 1447 1446 1446 1445 1444 1444 1444 1444 1444 1444 1444 1444 1444 1444 1444 1443 1444 1444 1444 1444 1444 1444 1444 1444 1444 1444 1444 1444
1462 1460 1459 1458 1456 1455 1454 1452 1451 1450 1449 1448 1447 1446 1445 1444 1443 1442 1441 1441 1441 1441 1440 1440 1440 1439 1439 1439 1439 1439 1439 1439 1440 1440 1440 1440 1440 1439 1439 1439 1439 1439 1439 1439
1459 1458 1456 1455 1453 1451 1450 1449 1447 1446 1445 1444 1443 1442 1441 1440 1439 1438 1437 1437 1437 1436 1436 1436 1436 1435 1435 1435 1435 1435 1435 1435 1435 1435 1435 1435 1435 1435 1435 1434 1434 1434 1434 1434
1456 1455 1453 1451 1450 1448 1446 1445 1444 1442 1441 1440 1439 1438 1437 1436 1435 1434 1433 1433 1432 1432 1432 1432 1431 1431 1431 1431 1431 1430 1430 1430 1430 1430 1430 1430 1430 1430 1430 1429 1429 1429 1429 1429
1453 1452 1450 1448 1446 1445 1443 1441 1440 1439 1438 1437 1436 1435 1434 1432 1431 1430 1430 1429 1428 1428 1428 1427 1427 1427 1427 1426 1426 1426 1426 1426 1426 1426 1426 1426 1425 1425 1425 1425 1424 1424 1424 1424
1450 1448 1447 1445 1443 1441 1440 1438 1437 1435 1434 1433 1432 1431 1430 1429 1428 1427 1426 1425 1425 1424 1424 1424 1423 1423 1423 1423 1422 1422 1422 1421 1421 1421 1421 1421 1421 1421 1420 1420 1420 1420 1419 1419
1447 1445 1443 1442 1440 1439 1437 1435 1434 1433 1432 1430 1429 1428 1427 1426 1424 1423 1423 1422 1421 1421 1421 1420 1420 1419 1419 1419 1418 1418 1418 1417 1417 1417 1417 1416 1416 1416 1416 1415 1415 1415 1415 1415
1443 1442 1440 1439 1437 1436 1434 1433 1431 1430 1429 1428 1426 1425 1424 1423 1422 1421 1420 1419 1418 1418 1417 1417 1416 1416 1416 1415 1415 1414 1414 1413 1413 1412 1412 1412 1412 1411 1411 1411 1410 1410 1410 1410